Flag for Canada

Past Weather in Ottawa, Ontario, Canada — Yesterday and Last 2 Weeks

Now
36 °F

Clear.


Feels Like: 36 °F
Forecast: 63 / 35 °F
Wind: 2 mph from North

Location: Ottawa Int'L. Ont.
Current Time: Sep 21, 2020 at 3:47:19 am
Latest Report: Sep 21, 2020 at 3:00 am
Visibility: 15 mi
Pressure30.61 "Hg
Humidity: 87%
Dew Point: 32 °F
Location of OttawaLocation

Past Weather in Ottawa — Graph

°F

Ottawa Temperature Yesterday

Maximum temperature yesterday: 59 °F (at 3:00 pm)
Minimum temperature yesterday: 37 °F (at 7:00 am)
Average temperature yesterday: 48 °F

High & Low Weather Summary for the Past Weeks

 TemperatureHumidityPressure
High77 °F (Sep 7, 2:00 pm)100% (Sep 6, 2:00 am)30.63 "Hg (Sep 6, 2:00 am)
Low32 °F (Sep 19, 5:00 am)33% (Sep 19, 3:00 pm)29.73 "Hg (Sep 7, 1:00 pm)
Average55 °F77%30.20 "Hg
* Reported Sep 6 2:00 am — Sep 21 2:00 am, Ottawa. Weather by CustomWeather, © 2020

Note: Actual official high and low records may vary slightly from our data, if they occured in-between our weather recording intervals... More about our weather records

Ottawa Weather History for the Previous 24 Hours

Scroll right to see more
 ConditionsComfort  
Time TempWeatherWind HumidityBarometerVisibility
2:00 am
Mon, Sep 21
37 °FClear.5 mph81%30.60 "Hg15 mi
1:27 am36 °FClear.3 mph81%30.60 "Hg15 mi
1:00 am41 °FClear.3 mph66%30.60 "Hg15 mi
12:00 am41 °FClear.5 mph70%30.59 "Hg15 mi
11:00 pm
Sun, Sep 20
43 °FClear.5 mph66%30.59 "Hg15 mi
10:00 pm46 °FClear.6 mph57%30.59 "Hg15 mi
9:00 pm43 °FPassing clouds.5 mph66%30.59 "Hg15 mi
8:00 pm46 °FPassing clouds.2 mph57%30.58 "Hg15 mi
7:00 pm54 °FPassing clouds.No wind41%30.58 "Hg15 mi
6:00 pm57 °FPassing clouds.2 mph39%30.58 "Hg15 mi
5:00 pm57 °FPassing clouds.5 mph33%30.57 "Hg15 mi
4:00 pm59 °FPassing clouds.6 mph34%30.59 "Hg15 mi
3:00 pm59 °FPassing clouds.6 mph36%30.60 "Hg15 mi
2:00 pm57 °FPassing clouds.8 mph41%30.60 "Hg15 mi
1:00 pm55 °FPassing clouds.5 mph38%30.62 "Hg15 mi
12:00 pm55 °FPassing clouds.3 mph44%30.63 "Hg15 mi
11:00 am52 °FPassing clouds.2 mph50%30.63 "Hg15 mi
10:00 am52 °FSunny.6 mph58%30.63 "Hg15 mi
9:00 am48 °FPassing clouds.8 mph66%30.61 "Hg15 mi
8:00 am43 °FPassing clouds.5 mph87%30.60 "Hg15 mi
7:00 am37 °FPassing clouds.6 mph93%30.57 "Hg15 mi
6:00 am41 °FPassing clouds.6 mph87%30.54 "Hg15 mi
5:00 am41 °FPassing clouds.7 mph87%30.52 "Hg15 mi
4:00 am43 °FPassing clouds.6 mph81%30.50 "Hg15 mi
3:00 am43 °FPassing clouds.9 mph81%30.49 "Hg15 mi
Weather by CustomWeather, © 2020

See weather overview